SCP
0 0 0 0 0 0 0 0 0 0 0 0 0 0 0 0 0 0 0 0 0 0 0 0 1 1 1 1 1 1 1 1 1 1 1 1 1 1 1 1 1 1 1 1 1 1 1 1 1
0 0 0 0 0 0 0 0 0 0 0 0 0 0 0 0 0 0 0 0 0 0 0 0 1 1 1 1 1 1 1 1 1 1 1 1 1 1 1 1 1 1 1 1 1 1 1 1 1
0 0 0 0 0 0 0 0 0 0 0 0 0 0 0 0 0 0 0 0 0 0 0 0 0 0 0 0 0 1 1 1 1 1 1 1 1 1 1 1 1 1 1 1 1 1 1 1 1
0 0 0 0 0 0 0 0 0 0 0 0 0 0 0 0 0 0 0 0 0 0 0 0 0 0 0 0 0 0 0 0 0 0 0 1 1 1 1 1 1 1 1 1 1 1 1 1 1
0 0 0 0 0 0 0 0 0 0 0 0 0 0 0 0 0 0 0 0 0 0 0 0 0 0 0 0 0 0 0 0 0 0 0 0 1 1 1 1 1 1 1 1 1 1 1 1 1
0 0 0 0 0 0 0 0 0 0 0 0 0 0 0 0 0 0 0 0 0 0 0 0 0 0 0 0 0 0 0 0 0 0 0 0 0 1 1 1 1 1 1 1 1 1 1 1 1
0 0 0 0 0 0 0 0 0 0 0 0 0 0 0 0 0 0 0 0 0 0 0 0 0 0 0 0 0 0 0 0 0 0 0 0 0 0 0 1 1 1 1 1 1 1 1 1 1
0 0 0 0 0 0 0 0 0 0 0 0 0 0 0 0 0 0 0 0 0 0 0 0 0 0 0 0 0 0 0 0 0 0 0 0 0 0 0 0 0 0 1 1 1 1 1 1 1
0 0 0 0 0 0 0 0 0 0 0 0 0 0 0 0 0 0 0 0 0 0 0 0 0 0 0 0 0 0 0 0 0 0 0 0 0 0 0 0 0 0 0 1 1 1 1 1 1
0 0 0 0 0 0 0 0 0 0 0 0 0 0 0 0 0 0 0 0 0 0 0 0 0 0 0 0 0 0 0 0 0 0 0 0 0 0 0 0 0 0 0 0 0 1 1 1 1
0 0 0 0 0 0 0 0 0 0 0 0 0 0 0 0 0 0 0 0 0 0 0 0 0 0 0 0 0 0 0 0 0 0 0 0 0 0 0 0 0 0 0 0 0 0 0 0 1
0 0 0 0 0 0 0 0 0 0 0 0 0 0 0 0 0 0 0 0 0 0 0 0 0 0 0 0 0 0 0 0 0 0 0 0 0 0 0 0 0 0 0 0 0 0 0 0 0
0 0 0 0 0 0 0 0 0 0 0 0 0 0 0 0 0 0 0 0 0 0 0 0 0 0 0 0 0 0 0 0 0 0 0 0 0 0 0 0 0 0 0 0 0 0 0 0 0
0 0 0 0 0 0 0 0 0 0 0 0 0 0 0 0 0 0 0 0 0 0 0 0 0 0 0 0 0 0 0 0 0 0 0 0 0 0 0 0 0 0 0 0 0 0 0 0 0
0 0 0 0 0 0 0 0 0 0 0 0 0 0 0 0 0 0 0 0 0 0 0 0 0 0 0 0 0 0 0 0 0 0 0 0 0 0 0 0 0 0 0 0 0 0 0 0 0
0 0 0 0 0 0 0 0 0 0 0 0 0 0 0 0 0 0 0 0 0 0 0 0 0 0 0 0 0 0 0 0 0 0 0 0 0 0 0 0 0 0 0 0 0 0 0 0 0
0 0 0 0 0 0 0 0 0 0 0 0 0 0 0 0 0 0 0 0 0 0 0 0 0 0 0 0 0 0 0 0 0 0 0 0 0 0 0 0 0 0 0 0 0 0 0 0 0
0 0 0 0 0 0 0 0 0 0 0 0 0 0 0 0 0 0 0 0 0 0 0 0 0 0 0 0 0 0 0 0 0 0 0 0 0 0 0 0 0 0 0 0 0 0 0 0 0
0 0 0 0 0 0 0 0 0 0 0 0 0 0 0 0 0 0 0 0 0 0 0 0 0 0 0 0 0 0 0 0 0 0 0 0 0 0 0 0 0 0 0 0 0 0 0 0 0
0 0 0 0 0 0 0 0 0 0 0 0 0 0 0 0 0 0 0 0 0 0 0 0 0 0 0 0 0 0 0 0 0 0 0 0 0 0 0 0 0 0 0 0 0 0 0 0 0
0 0 0 0 0 0 0 0 0 0 0 0 0 0 0 0 0 0 0 0 0 0 0 0 0 0 0 0 0 0 0 0 0 0 0 0 0 0 0 0 0 0 0 0 0 0 0 0 0
0 0 0 0 0 0 0 0 0 0 0 0 0 0 0 0 0 0 0 0 0 0 0 0 0 0 0 0 0 0 0 0 0 0 0 0 0 0 0 0 0 0 0 0 0 0 0 0 0
0 0 0 0 0 0 0 0 0 0 0 0 0 0 0 0 0 0 0 0 0 0 0 0 0 0 0 0 0 0 0 0 0 0 0 0 0 0 0 0 0 0 0 0 0 0 0 0 0
0 0 0 0 0 0 0 0 0 0 0 0 0 0 0 0 0 0 0 0 0 0 0 0 0 0 0 0 0 0 0 0 0 0 0 0 0 0 0 0 0 0 0 0 0 0 0 0 0
0 0 0 0 0 0 0 0 0 0 0 0 0 0 0 0 0 0 0 0 0 0 0 0 0 0 0 0 0 0 0 0 0 0 0 0 0 0 0 0 0 0 0 0 0 0 0 0 0
0 0 0 0 0 0 0 0 0 0 0 0 0 0 0 0 0 0 0 0 0 0 0 0 0 0 0 0 0 0 0 0 0 0 0 0 0 0 0 0 0 0 0 0 0 0 0 0 0
0 0 0 0 0 0 0 0 0 0 0 0 0 0 0 0 0 0 0 0 0 0 0 0 0 0 0 0 0 0 0 0 0 0 0 0 0 0 0 0 0 0 0 0 0 0 0 0 0
0 0 0 0 0 0 0 0 0 0 0 0 0 0 0 0 0 0 0 0 0 0 0 0 0 0 0 0 0 0 0 0 0 0 0 0 0 0 0 0 0 0 0 0 0 0 0 0 0
0 0 0 0 0 0 0 0 0 0 0 0 0 0 0 0 0 0 0 0 0 0 0 0 0 0 0 0 0 0 0 0 0 0 0 0 0 0 0 0 0 0 0 0 0 0 0 0 0
0 0 0 0 0 0 0 0 0 0 0 0 0 0 0 0 0 0 0 0 0 0 0 0 0 0 0 0 0 0 0 0 0 0 0 0 0 0 0 0 0 0 0 0 0 0 0 0 0
Wind_Speed
15 14 6 1 1 6 14 13 13 11 12 18 16 15 16 16 12 9 5 11 11 11 15 19 25 25 25 25 25 24 23 22 21 20 19 18 17 16 15 14 14 13 12 11 10 10 10 10 9
11 11 4 2 4 10 11 11 14 15 11 13 15 16 14 13 12 6 6 10 10 11 13 17 23 25 25 25 25 24 24 23 23 22 21 20 19 18 17 15 14 14 13 12 11 11 10 10 9
11 8 3 2 12 10 10 10 12 16 19 12 10 12 10 8 8 5 7 10 9 9 10 16 23 24 24 25 25 25 24 24 23 23 22 21 20 19 18 17 15 15 14 13 12 11 11 10 9
5 3 1 11 18 17 15 12 7 12 14 15 12 11 8 6 4 6 8 10 10 10 10 14 23 23 24 24 25 24 24 24 24 24 24 23 21 20 19 17 17 16 15 14 13 12 11 10 9
3 1 10 11 13 13 15 16 19 18 10 14 14 11 8 6 5 7 8 11 11 11 11 13 24 24 23 24 24 24 24 24 24 24 25 24 23 21 20 19 18 18 17 15 14 13 11 10 10
4 2 9 10 13 12 13 17 15 16 13 12 9 10 7 6 6 7 9 10 11 12 12 13 23 25 25 24 24 24 23 24 24 24 26 25 23 22 22 21 21 20 19 18 16 14 13 12 11
3 7 11 12 11 9 9 10 16 13 13 12 9 9 6 8 6 8 9 9 10 12 12 12 13 17 23 24 24 24 23 24 24 24 26 25 24 23 23 23 23 22 21 20 18 16 14 13 12
3 4 10 9 9 7 9 9 9 12 10 9 12 9 6 7 8 8 9 9 10 12 12 13 13 14 14 13 21 23 22 23 23 23 25 25 23 22 22 22 24 23 23 22 20 18 17 15 13
3 8 9 8 8 7 10 9 9 10 13 14 13 12 9 8 9 9 9 10 11 14 13 12 13 13 14 13 17 17 18 19 19 17 22 19 11 12 13 21 24 24 25 24 22 22 20 16 12
9 7 9 11 11 11 12 10 9 10 13 13 11 11 10 9 10 10 11 12 13 14 13 13 13 13 13 13 11 8 9 9 10 9 11 9 9 10 14 20 23 24 24 23 24 25 20 13 7
8 8 9 11 13 13 13 11 10 9 10 10 9 9 9 10 10 11 11 11 11 11 12 13 13 12 12 10 9 7 6 6 8 9 10 8 8 8 8 8 11 12 15 11 16 15 11 10 8
9 13 10 9 10 11 10 8 10 12 9 9 9 9 9 10 11 11 11 11 11 11 12 13 13 12 12 11 9 8 7 6 7 8 10 8 7 8 8 8 9 8 7 9 9 9 13 14 13
10 9 13 14 15 14 15 13 12 11 9 8 8 9 9 10 10 9 10 10 11 12 13 13 13 13 12 11 9 10 8 8 8 7 8 10 8 9 9 9 8 8 7 9 10 10 12 13 14
12 15 13 12 11 9 13 10 6 7 7 7 8 7 8 8 9 9 10 11 12 12 13 13 13 13 13 11 10 9 8 8 8 7 9 10 9 9 9 10 9 9 9 9 9 11 11 11 11
15 12 10 8 8 9 10 9 8 6 6 6 7 7 7 8 9 9 9 10 10 11 12 13 13 14 13 13 12 10 8 9 8 8 9 11 11 9 9 9 10 9 10 11 9 10 9 10 11
9 7 7 7 8 6 4 6 8 4 3 4 4 6 6 7 9 8 9 9 9 10 12 13 14 14 14 13 11 10 9 10 8 8 8 12 13 12 9 9 9 11 10 9 9 9 10 10 10
7 6 7 6 3 4 4 7 7 3 2 3 4 5 6 7 8 8 9 9 9 10 11 13 13 13 14 12 11 10 10 9 9 8 8 11 12 13 10 8 9 11 10 10 11 10 10 11 11
5 5 5 8 3 2 2 9 7 3 1 2 4 5 6 7 7 7 8 8 9 9 11 12 12 13 12 9 9 8 9 8 8 7 8 11 11 13 11 9 11 12 10 10 10 12 11 10 11
6 6 4 6 3 1 3 9 7 5 2 2 5 5 6 7 7 7 7 8 8 9 11 12 12 12 10 9 10 10 10 9 8 7 11 11 11 12 10 9 10 11 10 12 13 12 13 11 10
4 5 3 5 4 1 3 7 8 6 4 4 4 4 5 6 7 7 7 8 8 9 10 10 11 11 10 9 8 8 9 8 8 8 9 10 11 12 11 11 10 10 10 11 12 12 10 10 10
2 4 5 2 5 3 3 6 9 8 6 4 3 1 5 7 7 7 7 8 8 8 9 10 10 11 10 10 7 9 7 7 7 8 7 9 11 11 10 10 10 10 9 9 11 11 12 11 11
4 5 4 4 3 4 7 3 8 9 7 6 2 4 6 6 6 6 7 8 8 8 7 8 9 10 9 9 9 11 10 9 10 8 8 10 11 11 10 10 10 10 9 10 10 11 10 11 10
4 3 4 6 4 3 6 4 5 8 7 5 4 6 6 6 6 7 8 8 7 7 7 7 8 8 9 9 9 9 9 8 8 9 10 9 9 9 10 10 9 10 9 10 10 10 10 9 10
6 7 7 3 2 5 4 6 4 3 4 6 6 5 6 6 7 7 8 7 7 7 6 7 8 8 8 9 9 10 11 11 12 11 10 9 7 7 9 12 9 10 9 10 10 9 11 10 11
4 6 2 2 3 3 1 0 5 6 9 7 4 4 5 7 7 7 8 7 7 7 7 7 8 9 9 9 9 9 10 10 10 10 10 11 9 8 9 11 10 10 10 11 10 10 10 10 11
4 4 3 4 5 5 3 3 6 8 6 2 1 4 6 7 7 7 7 7 7 7 7 8 8 9 9 9 9 9 9 7 7 9 10 9 8 8 10 11 11 12 12 13 11 9 9 9 10
5 4 1 3 6 6 2 6 5 5 4 1 4 6 7 7 7 7 7 7 7 7 7 8 9 9 9 9 9 9 9 9 9 9 9 7 8 10 12 12 12 12 12 12 12 8 10 10 10
2 3 3 3 4 6 6 4 4 5 2 4 5 6 6 6 7 7 7 7 6 6 6 7 8 8 8 9 9 12 10 9 9 9 9 9 10 10 12 12 12 12 12 12 11 10 10 11 11
0 1 2 3 3 3 6 1 5 6 4 3 4 5 6 7 7 7 7 7 6 7 7 7 7 8 9 9 9 10 9 9 9 9 9 9 9 10 11 12 12 13 12 12 11 11 12 13 14
2 3 3 3 4 3 5 0 5 5 3 3 4 6 7 8 7 7 7 7 7 7 7 8 8 8 9 9 10 10 10 10 10 10 10 10 11 10 11 11 12 13 13 12 13 13 13 15 15
Wind_Direction
308 295 276 265 242 74 69 57 55 56 73 64 58 65 70 52 40 74 325 332 5 20 18 18 22 23 24 25 24 23 21 18 14 9 4 359 353 348 343 342 340 340 337 329 324 321 310 303 301
300 296 299 250 96 83 73 69 59 42 66 87 60 56 60 58 37 52 348 342 16 30 30 22 25 26 27 26 25 23 21 20 17 13 9 4 359 354 348 343 341 339 336 329 321 318 311 301 292
278 271 266 49 64 65 71 65 86 61 40 66 74 50 51 34 25 18 355 358 20 30 38 25 26 27 27 26 24 23 20 19 17 14 10 6 2 359 355 351 345 339 334 329 320 314 309 302 290
289 261 92 73 70 45 42 32 45 84 51 52 80 73 71 33 14 16 12 15 24 23 28 27 26 26 26 25 22 20 18 16 15 13 10 6 3 2 0 358 354 347 337 329 323 314 308 304 294
236 115 83 86 78 60 39 44 49 56 55 53 75 85 78 45 30 33 28 24 26 23 18 22 23 20 21 22 18 17 16 13 12 12 9 4 2 3 3 3 0 354 345 334 323 315 308 303 298
265 134 97 94 96 92 59 37 55 63 54 34 81 98 75 45 31 44 37 33 27 23 20 18 18 15 12 14 15 12 12 10 8 10 7 2 0 1 3 3 360 354 348 341 331 319 308 299 293
2 79 102 110 102 78 66 55 41 55 45 17 19 87 76 39 29 49 46 36 32 25 21 16 16 11 6 4 8 6 7 8 5 8 6 1 358 358 359 360 356 351 347 342 335 327 315 301 290
330 93 103 101 91 85 75 66 49 43 49 30 31 66 64 34 32 40 47 37 31 26 21 16 13 9 2 354 2 0 1 4 2 5 3 1 356 355 354 356 350 348 346 341 336 333 323 308 292
339 67 48 34 89 91 110 101 86 82 79 69 65 71 66 45 41 35 35 32 27 25 18 15 9 7 0 353 356 354 356 0 359 2 0 359 350 349 351 351 347 348 345 341 341 338 328 315 294
37 64 54 45 80 91 87 93 110 89 76 78 77 71 63 48 38 37 33 27 23 19 14 13 6 4 1 354 351 343 349 353 352 357 355 354 350 346 354 345 345 346 342 346 346 339 332 324 307
49 87 95 76 88 98 91 78 75 100 67 62 67 65 54 52 41 34 31 27 23 17 13 11 4 3 1 353 348 343 345 349 347 352 352 353 349 344 351 341 339 339 340 347 341 339 333 324 315
75 61 88 93 96 95 89 80 65 70 86 77 65 60 55 48 45 33 26 23 19 16 12 10 4 2 359 352 345 343 344 346 344 347 351 355 351 348 347 339 334 335 339 340 339 331 326 325 320
86 83 73 77 78 83 89 89 93 95 96 91 80 66 57 49 43 39 26 22 19 15 10 7 1 3 358 351 347 346 342 343 343 345 350 358 356 348 345 335 333 332 338 338 332 326 327 327 322
109 113 113 110 109 106 104 105 98 112 118 107 90 72 61 57 47 37 27 21 17 13 9 4 0 2 357 353 348 342 341 341 342 344 348 358 357 346 344 334 332 335 341 334 328 327 329 325 323
126 121 126 132 122 138 126 96 106 132 141 124 110 98 78 59 56 42 33 25 17 13 9 3 359 1 358 351 348 344 341 343 341 343 348 359 354 346 344 335 333 340 338 331 330 327 331 329 328
167 159 141 150 155 172 259 125 130 145 120 88 79 81 74 68 58 47 36 28 20 15 10 4 1 359 356 350 350 343 343 342 340 344 350 357 347 346 343 335 334 339 336 332 332 335 337 330 326
204 220 133 147 155 167 228 122 138 142 143 120 76 59 48 47 54 49 37 31 22 18 11 4 0 359 354 351 349 340 342 340 338 344 352 349 343 344 341 332 338 338 334 334 334 337 332 327 323
346 337 112 128 114 205 160 118 133 156 195 98 70 55 45 32 42 51 37 33 24 20 14 3 359 358 352 352 344 339 340 337 335 342 349 345 342 341 338 335 339 337 333 334 332 331 331 324 320
334 334 56 100 105 272 154 139 148 155 171 47 49 34 38 31 25 40 36 33 23 18 14 2 357 355 354 353 344 342 339 336 334 343 345 341 339 337 336 341 338 336 332 331 331 333 327 326 322
319 322 66 123 121 244 162 159 151 153 118 53 19 13 21 34 16 22 26 31 22 18 13 0 356 351 353 350 338 336 330 328 333 340 334 335 337 337 340 343 340 335 330 328 331 330 326 324 329
318 22 2 16 135 212 215 195 158 147 132 159 220 87 40 30 14 10 20 28 22 19 12 359 352 348 349 346 339 337 326 329 337 334 331 336 338 335 336 341 340 331 328 324 327 327 331 324 319
12 37 333 296 227 214 178 238 158 156 173 190 183 68 45 33 15 13 25 27 22 18 11 359 348 346 347 346 341 339 339 337 334 331 328 334 333 332 335 341 338 330 325 323 325 332 323 319 318
326 324 278 272 253 257 193 239 141 151 189 174 95 56 39 32 20 22 31 28 20 15 8 355 344 344 345 345 341 338 333 330 327 327 330 332 327 329 337 340 335 329 323 322 322 321 319 315 310
286 270 230 247 243 257 209 188 139 182 148 101 61 37 27 27 24 26 28 23 14 12 5 351 344 342 343 343 340 337 333 333 330 332 333 330 326 329 335 335 332 325 321 320 317 316 315 312 310
312 325 328 278 227 216 75 154 102 82 70 70 43 21 28 31 26 22 19 12 9 5 359 350 345 340 342 341 339 335 333 331 329 332 330 328 329 332 329 333 327 323 320 318 316 315 313 310 310
326 351 20 312 305 311 191 108 113 105 103 118 50 41 38 34 29 24 17 12 7 1 357 350 344 340 340 340 337 331 331 328 325 327 324 324 327 325 326 330 324 322 321 320 317 313 313 314 311
343 37 39 282 279 278 127 95 128 139 166 125 30 37 35 34 30 22 12 11 7 2 357 349 343 339 338 338 335 328 331 327 324 322 320 322 324 325 328 325 323 322 320 318 318 315 316 315 311
7 339 315 295 322 307 296 124 165 167 124 38 21 30 30 34 30 18 11 8 6 1 352 346 341 336 335 338 335 334 327 324 323 321 322 323 323 323 323 324 323 322 320 320 320 318 315 319 315
223 232 313 283 246 270 296 21 91 106 77 30 16 35 37 39 31 16 11 6 1 357 349 343 340 338 338 336 330 327 323 323 323 321 321 322 320 322 323 323 324 323 322 323 319 316 319 321 315
20 15 348 316 311 297 287 148 123 119 113 61 36 42 46 45 32 19 10 359 356 351 345 342 341 340 337 333 329 326 325 325 324 322 322 321 319 319 319 321 323 322 323 321 317 318 326 319 315